QPF
0.25 0.24 0.16 0.13 0.15 0.09 0.06 0.05 0.04 0.04 0.06 0.07 0.06 0.05 0.06 0.05 0.03 0.02 0.01 0.02 0.03 0.05 0.06 0.06 0.06 0.06 0.04 0.03 0.02 0.02 0.03 0.03 0.03 0.02 0.01 0.01 0.02 0.02 0.02 0.02 0.01 0.01 0.01 0.01 0.02 0.02 0.01 0.00 0.00
0.21 0.21 0.20 0.18 0.14 0.07 0.04 0.03 0.03 0.04 0.07 0.07 0.07 0.04 0.05 0.03 0.01 0.01 0.02 0.03 0.04 0.05 0.05 0.05 0.07 0.07 0.05 0.03 0.02 0.02 0.02 0.02 0.02 0.03 0.03 0.03 0.04 0.04 0.03 0.03 0.01 0.02 0.02 0.02 0.02 0.02 0.01 0.01 0.01
0.19 0.21 0.22 0.18 0.09 0.03 0.03 0.02 0.02 0.03 0.05 0.06 0.06 0.05 0.04 0.03 0.02 0.01 0.01 0.02 0.03 0.03 0.03 0.05 0.07 0.06 0.05 0.04 0.04 0.03 0.02 0.02 0.02 0.02 0.03 0.04 0.04 0.04 0.04 0.04 0.03 0.03 0.03 0.03 0.04 0.03 0.02 0.03 0.03
0.15 0.19 0.17 0.10 0.06 0.02 0.03 0.03 0.03 0.03 0.03 0.02 0.03 0.05 0.04 0.02 0.02 0.02 0.01 0.01 0.01 0.02 0.02 0.03 0.04 0.04 0.04 0.04 0.05 0.04 0.03 0.03 0.02 0.01 0.02 0.02 0.03 0.04 0.04 0.04 0.04 0.05 0.05 0.05 0.06 0.06 0.05 0.05 0.04
0.15 0.16 0.09 0.05 0.04 0.04 0.02 0.03 0.03 0.04 0.06 0.03 0.02 0.05 0.05 0.02 0.02 0.01 0.01 0.01 0.01 0.01 0.01 0.01 0.03 0.03 0.03 0.03 0.03 0.02 0.02 0.01 0.01 0.01 0.01 0.01 0.02 0.02 0.03 0.04 0.04 0.05 0.07 0.07 0.08 0.08 0.07 0.05 0.05
0.18 0.13 0.06 0.04 0.03 0.04 0.03 0.03 0.03 0.05 0.05 0.02 0.02 0.02 0.02 0.02 0.02 0.02 0.01 0.01 0.01 0.00 0.00 0.01 0.02 0.02 0.02 0.02 0.03 0.02 0.01 0.01 0.01 0.01 0.01 0.01 0.01 0.01 0.02 0.03 0.03 0.04 0.06 0.08 0.08 0.08 0.07 0.07 0.07
0.14 0.08 0.03 0.03 0.03 0.04 0.03 0.02 0.03 0.05 0.03 0.02 0.01 0.01 0.01 0.01 0.02 0.01 0.01 0.01 0.00 0.00 0.00 0.01 0.01 0.01 0.01 0.02 0.01 0.01 0.01 0.01 0.00 0.00 0.01 0.01 0.01 0.02 0.02 0.02 0.02 0.03 0.04 0.05 0.07 0.07 0.07 0.07 0.07
0.14 0.08 0.04 0.04 0.03 0.05 0.04 0.02 0.02 0.03 0.03 0.01 0.01 0.01 0.01 0.01 0.01 0.01 0.01 0.00 0.00 0.00 0.00 0.00 0.00 0.00 0.01 0.01 0.01 0.01 0.01 0.01 0.01 0.00 0.00 0.00 0.00 0.01 0.01 0.01 0.01 0.02 0.02 0.03 0.05 0.05 0.05 0.08 0.08
0.14 0.09 0.05 0.03 0.04 0.05 0.04 0.03 0.03 0.02 0.02 0.02 0.01 0.01 0.01 0.01 0.01 0.01 0.00 0.01 0.01 0.00 0.00 0.00 0.00 0.00 0.00 0.00 0.00 0.00 0.00 0.00 0.00 0.00 0.00 0.00 0.00 0.00 0.00 0.00 0.01 0.01 0.01 0.01 0.03 0.05 0.05 0.07 0.07
0.11 0.08 0.05 0.03 0.03 0.03 0.03 0.04 0.03 0.02 0.02 0.02 0.01 0.01 0.01 0.01 0.01 0.00 0.00 0.00 0.00 0.00 0.00 0.00 0.00 0.00 0.00 0.00 0.00 0.00 0.00 0.00 0.00 0.00 0.00 0.00 0.00 0.00 0.00 0.00 0.01 0.01 0.01 0.01 0.03 0.04 0.04 0.05 0.03
0.08 0.06 0.05 0.04 0.03 0.02 0.02 0.03 0.03 0.03 0.02 0.01 0.01 0.00 0.01 0.01 0.00 0.00 0.00 0.00 0.00 0.00 0.00 0.00 0.00 0.00 0.00 0.00 0.00 0.00 0.00 0.00 0.00 0.00 0.00 0.00 0.00 0.00 0.00 0.00 0.00 0.00 0.00 0.00 0.01 0.02 0.03 0.03 0.02
0.06 0.05 0.04 0.05 0.03 0.03 0.03 0.03 0.03 0.03 0.02 0.01 0.01 0.00 0.00 0.00 0.00 0.00 0.00 0.00 0.00 0.00 0.00 0.00 0.00 0.00 0.00 0.00 0.00 0.00 0.00 0.00 0.00 0.00 0.00 0.00 0.00 0.00 0.00 0.00 0.00 0.00 0.00 0.00 0.00 0.01 0.02 0.03 0.03
0.06 0.06 0.05 0.04 0.04 0.03 0.03 0.04 0.03 0.02 0.01 0.01 0.01 0.01 0.01 0.00 0.00 0.00 0.00 0.00 0.00 0.00 0.00 0.00 0.00 0.00 0.00 0.00 0.00 0.00 0.00 0.00 0.00 0.00 0.00 0.00 0.00 0.00 0.00 0.00 0.00 0.00 0.00 0.00 0.00 0.00 0.01 0.02 0.02
0.06 0.05 0.06 0.05 0.04 0.03 0.03 0.03 0.02 0.02 0.01 0.01 0.01 0.01 0.01 0.00 0.00 0.00 0.00 0.00 0.00 0.00 0.00 0.00 0.00 0.00 0.00 0.00 0.00 0.00 0.00 0.00 0.00 0.00 0.00 0.00 0.00 0.00 0.00 0.00 0.00 0.00 0.00 0.00 0.00 0.00 0.01 0.01 0.01
0.05 0.05 0.06 0.05 0.03 0.04 0.03 0.03 0.02 0.01 0.01 0.01 0.02 0.02 0.01 0.00 0.00 0.00 0.00 0.00 0.00 0.00 0.00 0.00 0.00 0.00 0.00 0.00 0.00 0.00 0.00 0.00 0.00 0.00 0.00 0.00 0.00 0.00 0.00 0.00 0.00 0.00 0.00 0.00 0.00 0.00 0.01 0.01 0.01
0.05 0.05 0.04 0.05 0.05 0.03 0.03 0.01 0.01 0.01 0.01 0.01 0.01 0.01 0.00 0.00 0.00 0.00 0.00 0.00 0.00 0.00 0.00 0.00 0.00 0.00 0.00 0.00 0.00 0.00 0.00 0.00 0.00 0.00 0.00 0.00 0.00 0.00 0.00 0.00 0.00 0.00 0.00 0.00 0.00 0.00 0.00 0.01 0.00
0.04 0.04 0.02 0.03 0.04 0.04 0.03 0.01 0.01 0.01 0.01 0.00 0.00 0.00 0.00 0.00 0.00 0.00 0.00 0.00 0.00 0.00 0.00 0.00 0.00 0.00 0.00 0.00 0.00 0.00 0.00 0.00 0.00 0.00 0.00 0.00 0.00 0.00 0.00 0.00 0.00 0.00 0.00 0.00 0.00 0.00 0.00 0.00 0.01
0.02 0.02 0.01 0.02 0.02 0.02 0.01 0.00 0.01 0.01 0.01 0.00 0.00 0.00 0.00 0.00 0.00 0.00 0.00 0.00 0.00 0.00 0.00 0.00 0.00 0.00 0.00 0.00 0.00 0.00 0.00 0.00 0.00 0.00 0.00 0.00 0.00 0.00 0.00 0.00 0.00 0.00 0.00 0.00 0.00 0.00 0.01 0.01 0.01
0.01 0.01 0.01 0.01 0.01 0.00 0.01 0.00 0.01 0.01 0.01 0.00 0.00 0.00 0.00 0.00 0.00 0.00 0.00 0.00 0.00 0.00 0.00 0.00 0.00 0.00 0.00 0.00 0.00 0.00 0.00 0.00 0.00 0.00 0.00 0.00 0.00 0.00 0.00 0.00 0.00 0.00 0.00 0.01 0.01 0.01 0.01 0.01 0.02
0.01 0.01 0.01 0.01 0.00 0.00 0.00 0.00 0.01 0.01 0.00 0.00 0.00 0.00 0.00 0.00 0.00 0.00 0.00 0.00 0.00 0.00 0.00 0.00 0.00 0.00 0.00 0.00 0.00 0.00 0.00 0.00 0.00 0.00 0.00 0.00 0.00 0.00 0.00 0.00 0.00 0.00 0.00 0.01 0.01 0.01 0.01 0.01 0.02
0.01 0.00 0.01 0.01 0.00 0.00 0.00 0.00 0.00 0.00 0.00 0.00 0.00 0.00 0.00 0.00 0.00 0.00 0.00 0.00 0.00 0.00 0.00 0.00 0.00 0.00 0.00 0.00 0.00 0.00 0.00 0.00 0.00 0.00 0.00 0.00 0.00 0.00 0.00 0.00 0.00 0.00 0.01 0.01 0.01 0.01 0.02 0.03 0.02
0.01 0.00 0.00 0.00 0.00 0.00 0.00 0.00 0.00 0.00 0.00 0.00 0.00 0.00 0.00 0.00 0.00 0.01 0.01 0.00 0.00 0.00 0.00 0.00 0.00 0.00 0.00 0.00 0.00 0.00 0.00 0.00 0.00 0.00 0.00 0.00 0.00 0.00 0.00 0.00 0.00 0.00 0.01 0.01 0.01 0.01 0.01 0.03 0.03
0.01 0.00 0.00 0.00 0.00 0.00 0.00 0.00 0.00 0.00 0.00 0.00 0.00 0.00 0.00 0.00 0.00 0.00 0.01 0.00 0.00 0.00 0.00 0.00 0.00 0.00 0.00 0.00 0.00 0.00 0.00 0.00 0.00 0.00 0.00 0.00 0.00 0.00 0.00 0.00 0.00 0.00 0.00 0.00 0.01 0.01 0.01 0.01 0.03
0.01 0.01 0.00 0.00 0.00 0.00 0.00 0.00 0.00 0.00 0.00 0.00 0.00 0.00 0.00 0.00 0.00 0.00 0.00 0.00 0.00 0.00 0.00 0.00 0.00 0.00 0.00 0.00 0.00 0.00 0.00 0.00 0.00 0.00 0.00 0.00 0.00 0.00 0.00 0.00 0.00 0.00 0.00 0.00 0.01 0.02 0.01 0.01 0.02
0.00 0.00 0.00 0.00 0.00 0.00 0.00 0.00 0.00 0.00 0.00 0.00 0.00 0.00 0.00 0.00 0.00 0.00 0.00 0.00 0.00 0.00 0.00 0.00 0.00 0.00 0.00 0.00 0.00 0.00 0.00 0.00 0.00 0.00 0.00 0.00 0.00 0.00 0.00 0.00 0.00 0.00 0.00 0.00 0.01 0.01 0.02 0.01 0.02
0.00 0.00 0.00 0.00 0.00 0.00 0.00 0.00 0.00 0.00 0.00 0.00 0.00 0.00 0.00 0.00 0.00 0.00 0.00 0.00 0.00 0.00 0.00 0.00 0.00 0.00 0.00 0.00 0.00 0.00 0.00 0.00 0.00 0.00 0.00 0.00 0.00 0.00 0.00 0.00 0.00 0.00 0.00 0.00 0.00 0.01 0.01 0.01 0.01
0.00 0.00 0.00 0.00 0.00 0.00 0.00 0.00 0.00 0.00 0.00 0.00 0.00 0.00 0.00 0.00 0.00 0.00 0.00 0.00 0.00 0.00 0.00 0.00 0.00 0.00 0.00 0.00 0.00 0.00 0.00 0.00 0.00 0.00 0.00 0.00 0.00 0.00 0.00 0.00 0.00 0.00 0.00 0.00 0.00 0.00 0.00 0.01 0.01
0.00 0.00 0.00 0.00 0.00 0.00 0.00 0.00 0.00 0.00 0.00 0.00 0.00 0.00 0.00 0.00 0.00 0.00 0.00 0.00 0.00 0.00 0.00 0.00 0.00 0.00 0.00 0.00 0.00 0.00 0.00 0.00 0.00 0.00 0.00 0.00 0.00 0.00 0.00 0.00 0.00 0.00 0.00 0.00 0.00 0.00 0.00 0.01 0.02
0.00 0.00 0.00 0.00 0.00 0.00 0.00 0.00 0.00 0.00 0.00 0.00 0.00 0.00 0.00 0.00 0.00 0.00 0.00 0.00 0.00 0.00 0.00 0.00 0.00 0.00 0.00 0.00 0.00 0.00 0.00 0.00 0.00 0.00 0.00 0.00 0.00 0.00 0.00 0.00 0.00 0.00 0.00 0.00 0.00 0.00 0.00 0.00 0.01
0.00 0.00 0.00 0.00 0.00 0.00 0.00 0.00 0.00 0.00 0.00 0.00 0.00 0.00 0.00 0.00 0.00 0.00 0.00 0.00 0.00 0.00 0.00 0.00 0.00 0.00 0.00 0.00 0.00 0.00 0.00 0.00 0.00 0.00 0.00 0.00 0.00 0.00 0.00 0.00 0.00 0.00 0.00 0.00 0.00 0.00 0.00 0.00 0.00
MSLP
1011.05 1011.92 1012.89 1013.85 1014.70 1015.35 1015.76 1015.91 1015.84 1015.62 1015.31 1015.00 1014.74 1014.54 1014.39 1014.25 1014.09 1013.86 1013.53 1013.13 1012.67 1012.23 1011.85 1011.58 1011.47 1011.50 1011.65 1011.88 1012.12 1012.35 1012.53 1012.64 1012.72 1012.77 1012.82 1012.90 1012.99 1013.09 1013.19 1013.25 1013.27 1013.24 1013.18 1013.11 1013.05 1013.02 1013.03 1013.06 1013.10
1011.30 1012.27 1013.29 1014.26 1015.06 1015.61 1015.87 1015.86 1015.62 1015.23 1014.79 1014.39 1014.08 1013.87 1013.74 1013.65 1013.55 1013.38 1013.13 1012.79 1012.41 1012.03 1011.72 1011.52 1011.47 1011.55 1011.74 1012.00 1012.27 1012.51 1012.70 1012.82 1012.90 1012.96 1013.00 1013.05 1013.11 1013.17 1013.22 1013.23 1013.21 1013.16 1013.09 1013.03 1012.99 1012.98 1013.00 1013.05 1013.09
1011.67 1012.68 1013.70 1014.61 1015.31 1015.72 1015.83 1015.65 1015.26 1014.75 1014.24 1013.79 1013.47 1013.28 1013.19 1013.15 1013.11 1012.99 1012.80 1012.53 1012.22 1011.91 1011.67 1011.55 1011.56 1011.69 1011.92 1012.20 1012.47 1012.72 1012.90 1013.02 1013.09 1013.12 1013.15 1013.16 1013.18 1013.18 1013.17 1013.13 1013.07 1012.99 1012.92 1012.87 1012.86 1012.88 1012.93 1013.00 1013.06
1012.15 1013.16 1014.12 1014.92 1015.48 1015.72 1015.66 1015.34 1014.84 1014.27 1013.73 1013.29 1013.01 1012.87 1012.83 1012.85 1012.85 1012.78 1012.64 1012.42 1012.16 1011.93 1011.76 1011.71 1011.77 1011.95 1012.19 1012.47 1012.74 1012.96 1013.11 1013.21 1013.25 1013.27 1013.26 1013.24 1013.21 1013.16 1013.09 1013.00 1012.90 1012.81 1012.73 1012.70 1012.71 1012.76 1012.85 1012.94 1013.03
1012.71 1013.67 1014.53 1015.18 1015.56 1015.63 1015.41 1014.98 1014.42 1013.84 1013.33 1012.96 1012.75 1012.69 1012.72 1012.79 1012.82 1012.79 1012.68 1012.50 1012.29 1012.11 1012.01 1012.00 1012.11 1012.30 1012.54 1012.80 1013.03 1013.20 1013.32 1013.38 1013.39 1013.38 1013.34 1013.30 1013.23 1013.15 1013.04 1012.91 1012.78 1012.67 1012.59 1012.56 1012.59 1012.67 1012.78 1012.90 1013.01
1013.29 1014.17 1014.89 1015.36 1015.55 1015.45 1015.11 1014.60 1014.03 1013.49 1013.07 1012.81 1012.71 1012.74 1012.84 1012.96 1013.02 1013.00 1012.90 1012.75 1012.58 1012.44 1012.38 1012.41 1012.53 1012.72 1012.94 1013.15 1013.32 1013.43 1013.50 1013.51 1013.50 1013.47 1013.43 1013.37 1013.30 1013.20 1013.07 1012.92 1012.76 1012.63 1012.54 1012.51 1012.54 1012.63 1012.75 1012.89 1013.01
1013.84 1014.60 1015.15 1015.44 1015.44 1015.19 1014.75 1014.21 1013.67 1013.23 1012.93 1012.80 1012.83 1012.96 1013.13 1013.28 1013.35 1013.34 1013.24 1013.09 1012.94 1012.84 1012.80 1012.85 1012.97 1013.14 1013.31 1013.46 1013.57 1013.62 1013.63 1013.61 1013.58 1013.55 1013.53 1013.49 1013.43 1013.34 1013.21 1013.05 1012.88 1012.72 1012.61 1012.56 1012.58 1012.65 1012.77 1012.89 1013.01
1014.28 1014.91 1015.30 1015.40 1015.24 1014.86 1014.36 1013.83 1013.35 1013.02 1012.86 1012.87 1013.02 1013.24 1013.46 1013.64 1013.71 1013.69 1013.58 1013.44 1013.30 1013.21 1013.20 1013.25 1013.37 1013.50 1013.63 1013.72 1013.75 1013.75 1013.71 1013.67 1013.65 1013.64 1013.65 1013.65 1013.63 1013.57 1013.45 1013.29 1013.10 1012.92 1012.78 1012.70 1012.68 1012.73 1012.81 1012.92 1013.01
1014.60 1015.10 1015.31 1015.25 1014.95 1014.48 1013.95 1013.44 1013.05 1012.84 1012.81 1012.94 1013.19 1013.47 1013.73 1013.91 1013.98 1013.94 1013.83 1013.69 1013.57 1013.50 1013.50 1013.56 1013.67 1013.77 1013.85 1013.89 1013.87 1013.82 1013.76 1013.72 1013.71 1013.74 1013.79 1013.85 1013.88 1013.85 1013.76 1013.61 1013.41 1013.21 1013.03 1012.91 1012.85 1012.85 1012.89 1012.95 1013.01
1014.80 1015.16 1015.22 1015.01 1014.60 1014.08 1013.54 1013.08 1012.77 1012.66 1012.74 1012.96 1013.27 1013.59 1013.86 1014.03 1014.08 1014.04 1013.92 1013.79 1013.69 1013.65 1013.67 1013.75 1013.84 1013.93 1013.98 1013.98 1013.93 1013.86 1013.79 1013.75 1013.77 1013.84 1013.95 1014.06 1014.14 1014.16 1014.09 1013.95 1013.75 1013.53 1013.32 1013.16 1013.05 1013.00 1012.99 1013.01 1013.03
1014.89 1015.12 1015.05 1014.73 1014.25 1013.70 1013.18 1012.77 1012.53 1012.49 1012.63 1012.90 1013.23 1013.56 1013.81 1013.96 1014.00 1013.95 1013.85 1013.74 1013.67 1013.66 1013.71 1013.81 1013.91 1014.00 1014.04 1014.02 1013.96 1013.88 1013.82 1013.80 1013.85 1013.96 1014.11 1014.27 1014.39 1014.43 1014.40 1014.27 1014.08 1013.85 1013.62 1013.42 1013.27 1013.17 1013.12 1013.09 1013.06
1014.93 1015.03 1014.86 1014.46 1013.94 1013.39 1012.90 1012.53 1012.35 1012.35 1012.51 1012.78 1013.10 1013.39 1013.61 1013.74 1013.77 1013.72 1013.64 1013.57 1013.54 1013.57 1013.66 1013.78 1013.91 1014.00 1014.05 1014.04 1014.00 1013.93 1013.89 1013.89 1013.97 1014.10 1014.27 1014.45 1014.59 1014.66 1014.64 1014.53 1014.35 1014.13 1013.89 1013.67 1013.50 1013.36 1013.27 1013.20 1013.13
1014.95 1014.94 1014.68 1014.25 1013.72 1013.19 1012.73 1012.41 1012.25 1012.26 1012.41 1012.64 1012.90 1013.14 1013.32 1013.42 1013.44 1013.41 1013.36 1013.33 1013.35 1013.43 1013.55 1013.71 1013.86 1013.99 1014.06 1014.08 1014.06 1014.03 1014.01 1014.03 1014.11 1014.25 1014.42 1014.60 1014.74 1014.82 1014.82 1014.73 1014.57 1014.36 1014.13 1013.92 1013.73 1013.58 1013.45 1013.34 1013.23
1014.97 1014.87 1014.56 1014.12 1013.62 1013.13 1012.72 1012.42 1012.27 1012.25 1012.35 1012.51 1012.69 1012.86 1012.99 1013.07 1013.09 1013.08 1013.08 1013.10 1013.16 1013.28 1013.44 1013.63 1013.82 1013.98 1014.09 1014.16 1014.18 1014.18 1014.19 1014.23 1014.30 1014.42 1014.57 1014.72 1014.84 1014.91 1014.92 1014.85 1014.72 1014.55 1014.35 1014.16 1013.97 1013.81 1013.66 1013.52 1013.37
1015.00 1014.83 1014.51 1014.09 1013.63 1013.20 1012.84 1012.57 1012.40 1012.34 1012.35 1012.42 1012.52 1012.61 1012.69 1012.74 1012.77 1012.80 1012.84 1012.90 1013.01 1013.16 1013.35 1013.56 1013.78 1013.98 1014.14 1014.26 1014.34 1014.38 1014.42 1014.46 1014.52 1014.61 1014.71 1014.81 1014.90 1014.96 1014.97 1014.93 1014.84 1014.71 1014.56 1014.39 1014.22 1014.05 1013.88 1013.71 1013.53
1015.03 1014.83 1014.51 1014.15 1013.76 1013.41 1013.09 1012.84 1012.64 1012.51 1012.43 1012.39 1012.38 1012.40 1012.43 1012.47 1012.52 1012.57 1012.65 1012.75 1012.88 1013.06 1013.27 1013.50 1013.74 1013.98 1014.19 1014.37 1014.51 1014.61 1014.67 1014.72 1014.76 1014.80 1014.85 1014.90 1014.95 1014.99 1015.00 1014.99 1014.94 1014.86 1014.76 1014.62 1014.47 1014.30 1014.12 1013.92 1013.70
1015.06 1014.85 1014.58 1014.30 1014.01 1013.73 1013.46 1013.21 1012.97 1012.75 1012.56 1012.41 1012.30 1012.23 1012.21 1012.24 1012.30 1012.38 1012.49 1012.62 1012.77 1012.95 1013.16 1013.41 1013.67 1013.95 1014.22 1014.46 1014.66 1014.81 1014.91 1014.97 1014.99 1014.99 1014.98 1014.98 1014.99 1015.01 1015.03 1015.05 1015.05 1015.02 1014.96 1014.86 1014.72 1014.55 1014.35 1014.12 1013.88
1015.07 1014.90 1014.72 1014.54 1014.36 1014.16 1013.93 1013.67 1013.37 1013.05 1012.74 1012.45 1012.23 1012.08 1012.01 1012.02 1012.08 1012.18 1012.31 1012.46 1012.62 1012.80 1013.02 1013.27 1013.55 1013.87 1014.19 1014.49 1014.76 1014.97 1015.11 1015.18 1015.18 1015.15 1015.10 1015.06 1015.03 1015.04 1015.07 1015.12 1015.16 1015.19 1015.17 1015.10 1014.98 1014.80 1014.59 1014.34 1014.07
1015.09 1015.01 1014.94 1014.89 1014.83 1014.71 1014.51 1014.22 1013.84 1013.40 1012.94 1012.52 1012.17 1011.93 1011.79 1011.77 1011.83 1011.95 1012.09 1012.24 1012.41 1012.59 1012.80 1013.05 1013.36 1013.71 1014.09 1014.46 1014.79 1015.06 1015.24 1015.33 1015.33 1015.27 1015.19 1015.11 1015.07 1015.08 1015.12 1015.20 1015.29 1015.36 1015.38 1015.34 1015.23 1015.05 1014.83 1014.57 1014.29
1015.13 1015.18 1015.27 1015.37 1015.43 1015.39 1015.20 1014.87 1014.38 1013.80 1013.18 1012.60 1012.11 1011.75 1011.55 1011.48 1011.52 1011.64 1011.79 1011.95 1012.12 1012.30 1012.51 1012.77 1013.10 1013.48 1013.91 1014.35 1014.74 1015.07 1015.29 1015.40 1015.41 1015.34 1015.24 1015.15 1015.10 1015.11 1015.17 1015.29 1015.41 1015.52 1015.58 1015.56 1015.47 1015.30 1015.07 1014.81 1014.55
1015.23 1015.45 1015.72 1015.99 1016.17 1016.19 1016.01 1015.60 1015.00 1014.26 1013.46 1012.70 1012.05 1011.57 1011.27 1011.15 1011.17 1011.28 1011.43 1011.59 1011.76 1011.95 1012.16 1012.44 1012.79 1013.21 1013.68 1014.17 1014.62 1014.99 1015.26 1015.39 1015.41 1015.35 1015.24 1015.15 1015.10 1015.11 1015.20 1015.35 1015.51 1015.65 1015.74 1015.75 1015.67 1015.52 1015.31 1015.08 1014.84
1015.41 1015.82 1016.29 1016.72 1017.02 1017.10 1016.91 1016.42 1015.68 1014.77 1013.78 1012.83 1012.02 1011.40 1011.00 1010.81 1010.79 1010.88 1011.03 1011.20 1011.38 1011.57 1011.80 1012.09 1012.46 1012.91 1013.42 1013.94 1014.44 1014.85 1015.15 1015.30 1015.34 1015.28 1015.19 1015.10 1015.05 1015.09 1015.20 1015.36 1015.55 1015.73 1015.85 1015.88 1015.84 1015.71 1015.53 1015.33 1015.14
1015.64 1016.27 1016.94 1017.54 1017.95 1018.07 1017.85 1017.28 1016.40 1015.31 1014.13 1013.00 1012.02 1011.26 1010.76 1010.49 1010.43 1010.50 1010.64 1010.81 1011.00 1011.21 1011.45 1011.75 1012.14 1012.61 1013.14 1013.69 1014.21 1014.65 1014.97 1015.15 1015.20 1015.16 1015.07 1014.99 1014.97 1015.01 1015.14 1015.32 1015.54 1015.73 1015.88 1015.94 1015.93 1015.84 1015.71 1015.55 1015.42
1015.92 1016.75 1017.60 1018.35 1018.85 1019.00 1018.75 1018.10 1017.09 1015.85 1014.51 1013.21 1012.08 1011.19 1010.59 1010.25 1010.13 1010.17 1010.31 1010.48 1010.67 1010.89 1011.14 1011.45 1011.84 1012.32 1012.85 1013.41 1013.94 1014.39 1014.73 1014.92 1015.00 1014.98 1014.91 1014.84 1014.83 1014.89 1015.02 1015.22 1015.45 1015.66 1015.82 1015.92 1015.94 1015.89 1015.81 1015.72 1015.64
1016.19 1017.20 1018.20 1019.06 1019.64 1019.81 1019.53 1018.81 1017.71 1016.34 1014.87 1013.44 1012.19 1011.20 1010.51 1010.11 1009.94 1009.95 1010.07 1010.23 1010.42 1010.63 1010.88 1011.18 1011.56 1012.03 1012.55 1013.10 1013.63 1014.08 1014.42 1014.64 1014.73 1014.74 1014.69 1014.65 1014.65 1014.72 1014.86 1015.06 1015.28 1015.50 1015.68 1015.80 1015.86 1015.86 1015.83 1015.79 1015.77
1016.43 1017.56 1018.67 1019.61 1020.22 1020.41 1020.11 1019.34 1018.17 1016.73 1015.19 1013.69 1012.36 1011.30 1010.55 1010.09 1009.88 1009.86 1009.94 1010.08 1010.25 1010.43 1010.66 1010.94 1011.29 1011.73 1012.22 1012.75 1013.26 1013.71 1014.06 1014.29 1014.41 1014.44 1014.43 1014.41 1014.43 1014.50 1014.64 1014.84 1015.06 1015.28 1015.47 1015.61 1015.70 1015.74 1015.75 1015.77 1015.80
1016.60 1017.79 1018.96 1019.92 1020.55 1020.73 1020.42 1019.64 1018.46 1017.00 1015.44 1013.93 1012.59 1011.50 1010.72 1010.22 1009.97 1009.90 1009.94 1010.04 1010.16 1010.30 1010.48 1010.71 1011.02 1011.40 1011.85 1012.34 1012.82 1013.26 1013.62 1013.88 1014.03 1014.10 1014.12 1014.13 1014.17 1014.25 1014.39 1014.58 1014.80 1015.01 1015.21 1015.36 1015.47 1015.55 1015.60 1015.66 1015.73
1016.70 1017.89 1019.04 1019.99 1020.59 1020.77 1020.46 1019.69 1018.55 1017.15 1015.64 1014.17 1012.87 1011.81 1011.02 1010.51 1010.22 1010.10 1010.08 1010.11 1010.16 1010.23 1010.34 1010.49 1010.73 1011.04 1011.43 1011.87 1012.33 1012.75 1013.11 1013.39 1013.58 1013.69 1013.76 1013.81 1013.87 1013.97 1014.11 1014.29 1014.50 1014.71 1014.90 1015.07 1015.20 1015.31 1015.39 1015.48 1015.57
1016.75 1017.89 1018.96 1019.84 1020.40 1020.55 1020.26 1019.55 1018.49 1017.19 1015.80 1014.44 1013.23 1012.23 1011.48 1010.96 1010.64 1010.46 1010.36 1010.30 1010.26 1010.24 1010.24 1010.31 1010.45 1010.68 1010.99 1011.37 1011.78 1012.18 1012.54 1012.84 1013.07 1013.22 1013.34 1013.43 1013.52 1013.64 1013.79 1013.96 1014.17 1014.37 1014.57 1014.75 1014.90 1015.03 1015.14 1015.24 1015.35
1016.80 1017.83 1018.79 1019.56 1020.05 1020.18 1019.91 1019.28 1018.34 1017.19 1015.97 1014.77 1013.69 1012.78 1012.08 1011.57 1011.22 1010.97 1010.79 1010.62 1010.47 1010.33 1010.23 1010.18 1010.21 1010.34 1010.57 1010.87 1011.21 1011.58 1011.93 1012.23 1012.49 1012.68 1012.84 1012.97 1013.10 1013.24 1013.40 1013.59 1013.79 1013.99 1014.20 1014.39 1014.56 1014.71 1014.84 1014.96 1015.08
Thickness
5779 5776 5773 5762 5744 5732 5730 5740 5748 5749 5754 5763 5767 5765 5759 5755 5751 5748 5768 5777 5777 5774 5773 5771 5769 5767 5765 5763 5761 5759 5757 5755 5753 5751 5750 5748 5747 5747 5746 5745 5745 5746 5746 5745 5745 5746 5746 5747 5748
5777 5774 5764 5750 5733 5722 5729 5745 5747 5753 5761 5766 5767 5765 5759 5757 5763 5764 5770 5774 5775 5773 5770 5769 5767 5765 5762 5760 5758 5756 5754 5752 5750 5748 5747 5746 5744 5743 5742 5742 5742 5742 5742 5742 5742 5742 5742 5743 5744
5775 5770 5754 5740 5731 5726 5735 5749 5752 5761 5768 5767 5762 5762 5759 5757 5764 5766 5771 5774 5772 5770 5768 5766 5764 5762 5760 5758 5756 5754 5752 5749 5747 5746 5744 5743 5741 5740 5739 5738 5738 5738 5738 5738 5738 5737 5738 5739 5740
5768 5757 5748 5736 5732 5741 5746 5753 5757 5760 5765 5768 5762 5756 5760 5768 5769 5771 5773 5772 5769 5767 5765 5763 5762 5760 5758 5755 5753 5751 5749 5747 5745 5743 5741 5740 5738 5737 5736 5736 5735 5734 5734 5734 5734 5733 5733 5735 5736
5761 5747 5735 5729 5735 5746 5754 5758 5760 5758 5760 5763 5760 5752 5755 5767 5773 5772 5771 5769 5766 5764 5763 5761 5759 5757 5755 5753 5751 5749 5747 5745 5742 5741 5739 5737 5736 5735 5734 5733 5732 5731 5731 5730 5730 5730 5729 5731 5732
5747 5739 5726 5723 5734 5747 5755 5760 5761 5758 5759 5762 5759 5752 5754 5766 5768 5768 5769 5767 5765 5763 5761 5759 5757 5755 5753 5751 5748 5746 5744 5742 5740 5738 5737 5735 5734 5732 5731 5730 5729 5728 5727 5727 5727 5726 5726 5727 5728
5741 5733 5727 5729 5732 5742 5754 5761 5759 5757 5757 5760 5762 5750 5753 5761 5766 5768 5766 5764 5763 5761 5758 5756 5754 5752 5751 5749 5746 5744 5743 5740 5738 5736 5734 5733 5731 5730 5729 5728 5727 5726 5724 5724 5723 5723 5723 5723 5724
5745 5735 5729 5729 5733 5740 5755 5761 5763 5760 5759 5767 5765 5751 5749 5760 5766 5764 5762 5760 5759 5757 5756 5754 5752 5750 5748 5746 5744 5742 5741 5738 5736 5734 5732 5731 5729 5727 5726 5725 5724 5723 5722 5721 5720 5720 5720 5720 5721
5746 5728 5722 5731 5736 5743 5754 5756 5762 5767 5763 5764 5765 5763 5765 5766 5763 5758 5755 5753 5753 5753 5753 5752 5750 5748 5746 5744 5742 5740 5738 5736 5734 5732 5730 5728 5726 5724 5723 5722 5721 5720 5718 5717 5717 5716 5716 5716 5717
5737 5724 5731 5743 5747 5748 5753 5755 5759 5759 5756 5756 5759 5763 5766 5762 5758 5753 5750 5749 5749 5749 5750 5750 5748 5746 5744 5742 5740 5738 5736 5734 5732 5729 5727 5725 5723 5721 5719 5718 5717 5715 5714 5713 5712 5711 5711 5711 5712
5735 5730 5739 5746 5752 5753 5753 5756 5761 5754 5749 5756 5757 5758 5760 5757 5754 5752 5750 5750 5749 5750 5749 5749 5747 5745 5743 5740 5738 5736 5734 5731 5729 5727 5724 5722 5719 5717 5716 5714 5712 5710 5709 5707 5706 5705 5705 5705 5706
5733 5738 5743 5747 5753 5753 5753 5755 5755 5755 5759 5769 5768 5765 5760 5755 5753 5752 5750 5750 5750 5749 5748 5748 5746 5744 5742 5739 5737 5734 5731 5729 5726 5724 5722 5719 5716 5713 5711 5709 5707 5705 5703 5701 5700 5699 5699 5700 5701
5731 5737 5745 5750 5753 5754 5754 5753 5754 5758 5767 5770 5767 5763 5758 5756 5754 5754 5753 5752 5749 5748 5748 5747 5746 5743 5741 5738 5736 5733 5730 5727 5724 5722 5719 5716 5713 5709 5707 5704 5702 5700 5698 5696 5695 5694 5694 5694 5696
5731 5736 5741 5746 5749 5752 5750 5752 5753 5760 5767 5765 5762 5759 5757 5756 5755 5752 5751 5750 5749 5748 5747 5746 5744 5742 5740 5737 5734 5731 5728 5726 5722 5719 5716 5713 5710 5707 5704 5701 5698 5696 5694 5692 5690 5689 5689 5689 5691
5733 5731 5734 5740 5745 5749 5749 5743 5750 5762 5763 5759 5758 5757 5756 5755 5755 5753 5753 5752 5751 5749 5747 5745 5743 5741 5738 5735 5732 5729 5727 5724 5720 5717 5713 5710 5707 5704 5701 5697 5694 5692 5690 5688 5687 5685 5685 5686 5687
5726 5721 5718 5734 5742 5747 5741 5730 5753 5762 5758 5754 5754 5754 5753 5754 5755 5756 5755 5753 5751 5749 5746 5744 5744 5739 5736 5733 5730 5727 5724 5721 5718 5714 5711 5708 5705 5701 5698 5694 5691 5689 5686 5685 5683 5681 5681 5681 5682
5710 5706 5712 5726 5740 5742 5736 5732 5751 5758 5756 5752 5752 5752 5752 5752 5754 5756 5756 5754 5752 5749 5746 5743 5741 5737 5734 5731 5728 5725 5722 5718 5715 5712 5709 5705 5702 5699 5695 5692 5688 5686 5683 5681 5679 5678 5677 5677 5678
5702 5706 5711 5718 5734 5735 5731 5733 5749 5755 5754 5751 5751 5750 5750 5750 5755 5757 5757 5755 5752 5748 5745 5742 5738 5735 5732 5728 5724 5721 5718 5716 5713 5710 5707 5703 5700 5697 5693 5689 5686 5683 5680 5678 5676 5674 5674 5674 5675
5713 5711 5711 5720 5735 5732 5729 5732 5744 5752 5751 5750 5749 5749 5750 5753 5758 5757 5756 5753 5749 5746 5743 5740 5736 5733 5729 5724 5720 5717 5714 5713 5710 5708 5705 5702 5698 5695 5691 5687 5684 5681 5677 5674 5673 5672 5671 5671 5672
5714 5709 5710 5720 5733 5732 5728 5731 5743 5749 5751 5753 5752 5751 5752 5753 5754 5754 5753 5751 5748 5745 5741 5738 5735 5732 5728 5725 5721 5717 5714 5711 5708 5706 5703 5700 5697 5693 5690 5685 5682 5679 5675 5673 5671 5669 5667 5667 5668
5710 5709 5712 5716 5724 5728 5726 5724 5735 5746 5751 5754 5756 5756 5755 5754 5752 5752 5751 5749 5747 5744 5741 5739 5735 5731 5727 5723 5719 5715 5711 5709 5706 5704 5701 5699 5695 5692 5688 5684 5681 5677 5674 5670 5668 5667 5665 5664 5665
5704 5719 5720 5719 5710 5703 5713 5698 5722 5730 5740 5749 5751 5752 5753 5755 5754 5753 5751 5749 5747 5746 5742 5739 5734 5730 5726 5722 5718 5714 5710 5706 5704 5702 5699 5697 5695 5691 5687 5684 5680 5676 5673 5670 5668 5666 5664 5663 5662
5715 5723 5720 5716 5709 5700 5704 5698 5709 5725 5734 5742 5748 5752 5753 5754 5754 5753 5753 5751 5749 5746 5741 5738 5733 5729 5725 5722 5718 5714 5710 5706 5704 5701 5699 5696 5693 5690 5687 5683 5679 5676 5673 5670 5668 5666 5664 5663 5661
5724 5717 5710 5702 5696 5687 5698 5695 5699 5715 5728 5736 5745 5749 5751 5753 5753 5753 5753 5750 5747 5743 5740 5736 5731 5728 5725 5721 5717 5714 5710 5706 5703 5700 5697 5695 5692 5689 5687 5683 5679 5676 5673 5670 5668 5666 5664 5663 5662
5718 5700 5681 5679 5674 5680 5696 5696 5700 5724 5733 5736 5740 5745 5749 5750 5750 5749 5748 5746 5744 5741 5738 5734 5730 5726 5723 5720 5716 5714 5710 5707 5703 5700 5697 5694 5690 5688 5686 5683 5680 5676 5674 5671 5669 5666 5665 5663 5662
5712 5703 5681 5673 5671 5676 5691 5692 5709 5731 5737 5741 5743 5745 5747 5748 5746 5746 5746 5744 5743 5740 5737 5733 5729 5726 5723 5719 5716 5714 5710 5707 5704 5701 5698 5694 5691 5689 5687 5684 5680 5677 5675 5672 5669 5667 5665 5663 5662
5709 5700 5701 5682 5679 5673 5682 5695 5716 5735 5736 5738 5739 5741 5741 5742 5743 5744 5744 5743 5741 5739 5737 5734 5730 5726 5723 5720 5717 5713 5710 5707 5704 5702 5699 5696 5693 5691 5688 5685 5681 5678 5675 5673 5670 5667 5665 5664 5662
5721 5704 5690 5681 5669 5666 5677 5685 5693 5715 5722 5727 5729 5731 5734 5738 5740 5741 5741 5740 5739 5738 5735 5732 5729 5726 5723 5720 5717 5714 5711 5708 5705 5702 5699 5696 5694 5691 5688 5685 5682 5679 5676 5673 5670 5668 5666 5664 5662
5713 5704 5689 5676 5676 5664 5666 5679 5708 5713 5718 5719 5722 5726 5729 5732 5735 5736 5737 5737 5737 5735 5732 5729 5726 5723 5720 5718 5715 5713 5710 5708 5705 5702 5700 5697 5695 5692 5689 5686 5683 5680 5677 5674 5670 5668 5666 5664 5662
5724 5712 5696 5684 5676 5669 5665 5677 5717 5715 5716 5717 5718 5722 5725 5727 5730 5732 5733 5733 5732 5730 5728 5726 5724 5722 5720 5718 5714 5711 5709 5706 5703 5701 5700 5697 5695 5693 5690 5687 5683 5681 5678 5674 5671 5669 5667 5664 5662